Location: Caracas
(10.5033°N, 66.8422°W)
Time: 07:16:49
(UTC-04:00)

ISS - Visible Passes

Search period start: 24 November 2017 00:00
Search period end: 04 December 2017 00:00
Orbit: 402 x 407 km, 51.6° (Epoch: 24 November)

Date Brightness Start Highest point End Pass type
(mag) Time Alt. Az. Time Alt. Az. Time Alt. Az.
24 Nov -2.8 04:50:10 45° ESE 04:50:10 45° ESE 04:52:37 10° SE visible
25 Nov -1.5 05:33:21 11° SW 05:33:22 11° SW 05:34:26 10° SW visible
26 Nov -0.9 04:43:47 11° S 04:43:47 11° S 04:43:59 10° S visible
